Home   Weather   Grimstad   Past weeks

Flag for Norway Past Weather in Grimstad, Norway — Yesterday and Last 2 Weeks

Now
43 °F

Quite cool.


Feels Like: 38 °F
Forecast: 34 / 40 °F
Wind: 9 mph from Southwest

Location: Torungen Fyr

Current Time: Dec 5, 2016 at 11:39:13 am

Latest Report: Dec 5, 2016 at 11:00 am


Visibility: N/A

Pressure: 30.09 "Hg

Humidity: 79%

Dew Point: 37 °F

Location of GrimstadLocation

Past Weather in Grimstad — Graph

°F

Grimstad Temperature Yesterday

Maximum temperature yesterday: 47 °F (at 2:00 pm)
Minimum temperature yesterday: 43 °F (at 6:00 am)
Average temperature yesterday: 44 °F

High & Low Weather Summary for the Past Weeks

 TemperatureHumidityPressure
High51 °F (Dec 1, 3:00 pm)98% (Nov 22, 7:00 am)30.51 "Hg (Nov 22, 7:00 am)
Low32 °F (Nov 29, 6:00 am)41% (Nov 27, 3:00 pm)29.21 "Hg (Nov 20, 11:00 pm)
Average42 °F75%29.98 "Hg
* Reported Nov 20 10:00 am — Dec 5 10:00 am, Grimstad, Weather by CustomWeather, © 2016

Note: Actual official high and low records may vary slightly from our data, if they occured in-between our weather recording intervals... More about our weather records

Advertising

Grimstad Weather History for the Previous 24 Hours

Scroll right to see more
 ConditionsComfort  
Time TempWeatherWind HumidityBarometerVisibility
10:00 am
Mon, Dec 5
43 °FQuite cool.9 mph78%30.09 "HgN/A
9:00 am43 °FQuite cool.9 mph78%30.09 "HgN/A
8:00 am44 °FQuite cool.10 mph75%30.07 "HgN/A
7:00 am43 °FQuite cool.9 mph77%30.08 "HgN/A
6:00 am44 °FQuite cool.9 mph84%30.08 "HgN/A
5:00 am44 °FQuite cool.9 mph83%30.09 "HgN/A
4:00 am44 °FQuite cool.9 mph84%30.09 "HgN/A
3:00 am43 °FQuite cool.12 mph85%30.10 "HgN/A
2:00 am43 °FQuite cool.12 mph85%30.11 "HgN/A
1:00 am43 °FQuite cool.10 mph81%30.13 "HgN/A
12:00 am44 °FQuite cool.8 mph73%30.14 "HgN/A
11:00 pm
Sun, Dec 4
44 °FQuite cool.6 mph74%30.15 "HgN/A
10:00 pm43 °FQuite cool.8 mph82%30.15 "HgN/A
9:00 pm43 °FQuite cool.9 mph81%30.16 "HgN/A
8:00 pm44 °FQuite cool.7 mph78%30.17 "HgN/A
7:00 pm44 °FQuite cool.7 mph79%30.17 "HgN/A
6:00 pm44 °FQuite cool.6 mph83%30.18 "HgN/A
5:00 pm44 °FQuite cool.8 mph83%30.18 "HgN/A
4:00 pm44 °FQuite cool.8 mph79%30.18 "HgN/A
3:00 pm44 °FQuite cool.8 mph81%30.19 "HgN/A
2:00 pm47 °FCool.5 mph67%30.19 "HgN/A
1:00 pm46 °FCool.3 mph68%30.20 "HgN/A
12:00 pm46 °FCool.1 mph64%30.20 "HgN/A
11:00 am45 °FCool.1 mph68%30.20 "HgN/A
Weather by CustomWeather, © 2016

See weather overviewHow to use our weather pages